Location: Campestrin
(46.4667°N, 11.7167°E)
Time: 11:16:51
(UTC+00:00)

Cosmos 540 Rocket - Pass Details

Date: 18 April 2021
Orbit: 741 x 753 km, 74.1° (Epoch: 06 May)

Event Time Altitude Azimuth Distance (km) Brightness Sun altitude
Rises 22:16:06 0° 335° (NNW) 3,196 7.8 -31.0°
Reaches altitude 10° 22:18:29 10° 333° (NNW) 2,267 6.8 -31.1°
Enters shadow 22:22:04 44° 314° (NW) 1,025 4.4 -31.3°
